Regional Weather Roundup
Issued by NWS Jackson, KY

Home | Current Version | Previous Version | Graphics & Text | Print | Product List | Glossary On
Versions: 1 2 3 4 5 6 7 8 9 10 11 12 13 14 15 16 17 18 19 20 21 22 23 24 25 26 27 28 29 30 31 32 33 34 35 36 37 38 39 40 41 42 43 44 45 46 47 48 49 50
000
ASUS43 KJKL 191910
RWRJKL

EAST KENTUCKY HOURLY WEATHER ROUNDUP
NATIONAL WEATHER SERVICE JACKSON KY
300 PM EDT SUN APR 19 2015

NOTE: "FAIR" INDICATES FEW OR NO CLOUDS BELOW 12,000 FEET WITH
NO SIGNIFICANT WEATHER AND/OR OBSTRUCTIONS TO VISIBILITY.

* THESE REPORTS ARE NOT UNDER NWS QUALITY CONTROL AND MAY NOT
  REPORT WEATHER SUCH AS PRECIPITATION AND FOG.

KYZ079-080-083-085-087-088-110-112-115-119-120-192000
...EASTERN KENTUCKY...

CITY           SKY/WX    TMP DP  RH WIND       PRES   REMARKS
JACKSON        CLOUDY    67  60  78 SE9       29.69F
LONDON         CLOUDY    68  60  75 SE9G16    29.66F
SOMERSET*      CLOUDY    66  64  94 S9G18     29.65S
MONTICELLO*    CLOUDY    68  64  86 S13       29.67F
MIDDLESBORO*   LGT RAIN  67  64  91 S3        29.70F
HARLAN APT*    CLOUDY    64  63  94 E3G17     29.73F
HAZARD APT*    CLOUDY    70  63  78 SE7       29.70F
BLACK MTN*       N/A     55  55 100 E5          N/A
PIKEVILLE APT* CLOUDY    64  59  82 SE14G24   29.75F
BIG SANDY*     CLOUDY    68  61  79 SE14      29.74F
MOREHEAD APT*    N/A    N/A N/A N/A MISG      29.68
$$

KYZ035-036-041-042-044-050-067-078-099-192000
...CENTRAL KENTUCKY...

CITY           SKY/WX    TMP DP  RH WIND       PRES   REMARKS
MT STERLING*   LGT RAIN  64  63  94 SE16      29.65F
FLEMING/MASON* CLOUDY    64  61  88 SE17G31   29.66F
DANVILLE*      HVY RAIN  64  63  94 S17G24    29.61F
RICHMOND*      CLOUDY    68  63  83 SE13G20   29.62F
LEXINGTON      CLOUDY    66  63  90 SE14G25   29.60F
FRANKFORT      LGT RAIN  67  62  84 SE13      29.56F
$$

KYZ091>093-OHZ055-061-077-WVZ005-015-034-035-042-192000
...SOUTHERN OHIO/WEST VIRGINIA...

CITY           SKY/WX    TMP DP  RH WIND       PRES   REMARKS
COVINGTON      LGT RAIN  64  61  90 SE17      29.60F FOG
COLUMBUS       LGT RAIN  65  54  67 SE13      29.76F
DAYTON         LGT RAIN  64  61  90 E23G29    29.67F FOG
WILMINGTON     LGT RAIN  63  59  87 SE22G29   29.67F
HUNTINGTON     LGT RAIN  63  62  97 E6        29.74F
CHARLESTON     LGT RAIN  65  58  78 E7        29.80F
PINEVILLE*     RAIN      63  60  90 MISG      29.87F
BECKLEY        LGT RAIN  59  53  80 SE23G35   29.88F
BLUEFIELD      LGT RAIN  60  55  83 SE8G18    29.91S
$$

VAZ002-007-008-TNZ017-027-036-066-071-192000
...SOUTHWEST VIRGINIA/EAST TENNESSEE...

CITY           SKY/WX    TMP DP  RH WIND       PRES   REMARKS
WISE*          CLOUDY    61  61 100 SE6G16    29.82F
JONESVILLE*    LGT RAIN  66  64  94 E7        29.76F
ABINGDON*      CLOUDY    64  62  93 E10       29.82F
BRISTOL        LGT RAIN  65  64  97 E3        29.78F FOG
OAK RIDGE      CLOUDY    70  66  87 S6        29.70F
CROSSVILLE     CLOUDY    70  59  68 S8G23     29.69F
NASHVILLE      PTSUNNY   76  65  68 S21G26    29.59F
$$

...KEY TO REMARKS...
VSB - VISIBILITY IN MILES
WCI - WIND CHILL INDEX
HX  - HEAT INDEX

$$


USA.gov is the U.S. government's official web portal to all federal, state and local government web resources and services.